{"data":{"norad_id":67984,"intl_designator":"2026-038Z","name":"STARLINK-36266","alt_names":[],"object_type":"PAYLOAD","status":"ACTIVE","operator":null,"country":"US","launch_date":"2026-02-25","launch_site_code":"AFWTR","launch_vehicle":null,"mission":null,"orbit_class":"UNKNOWN","rcs_meters":null,"size_class":null,"mass_kg":null,"dimensions":null,"purposes":["comms"],"wikipedia_slug":null,"has_3d_model":false,"image_url":null,"decayed_at":null,"tle_current":{"epoch":"2026-09-19T18:03:50.799456Z","epoch_age_seconds":124236,"freshness":"FRESH","line1":"1 67984U 26038Z   26262.75267129  .00020663  00000+0  64029-3 0  9990","line2":"2 67984  97.2854 271.1763 0000134 174.0931 186.0314 15.33461012 32982","mean_motion":15.33461012,"eccentricity":1.34e-5,"inclination_deg":97.2854,"raan_deg":271.1763,"arg_perigee_deg":174.0931,"mean_anomaly_deg":186.0314,"bstar":0.00064029,"rev_number":3298,"period_min":93.905224112734,"perigee_km":465.40382977011,"apogee_km":465.58723912203,"semimajor_km":6843.6325344461,"source":"CELESTRAK","updated_at":"2026-09-20T09:00:43.733967Z"}}}